Back to catalog

ORBASTRO-TR2

AliveScienceSSO
NORAD 59125·PAYLOAD·🇬🇧 United Kingdom
This satellite name has not been confirmed by official sources yet.

Launched Mar 4, 2024 from Vandenberg Space Force Base

Loading…

Next Passes (next 24 hours)

TLE

FreshSource: Space-Track

Epoch: Sep 14, 2026, 08:12 UTC

1 59125U 24043AD  26257.34175239  .00006589  00000-0  18291-3 0  9993
2 59125  97.5771  40.9139 0007466 275.2593  84.7799 15.37235321140957

Track ORBASTRO-TR2 in real time with AllMySat

Download on the App Store